Wind_Speed
45 43 40 37 35 32 30 29 28 28 29 30 31 32 33 34 36 38 39 43 50 56 58 59 59 58 61 65 67 68 70 73 76 77 76 75 74 74 74 74 73 72 71
47 45 43 41 39 37 35 34 33 33 33 34 35 35 35 35 36 37 39 39 40 44 46 49 51 51 53 58 63 64 62 63 67 71 74 75 75 74 74 74 74 73 72
50 49 48 46 45 42 40 39 38 38 37 36 37 37 36 36 35 34 34 31 29 32 38 46 51 53 54 53 54 56 55 56 60 63 66 68 69 70 70 71 72 73 72
54 53 51 50 49 48 46 44 43 41 40 39 38 38 37 35 32 30 27 22 24 32 39 42 48 52 55 55 53 51 49 49 51 55 57 60 61 62 63 65 67 68 68
54 53 52 52 51 50 49 48 46 44 42 40 38 37 36 34 30 26 22 21 25 33 38 39 41 45 48 50 50 50 49 49 50 53 56 57 57 58 59 60 61 61 62
52 51 50 49 48 47 46 46 47 46 44 42 40 38 36 34 30 25 24 27 29 34 38 41 42 41 42 44 46 48 48 48 50 52 55 58 59 59 59 59 57 57 58
54 53 52 50 48 45 43 42 43 44 44 42 40 38 36 34 31 29 27 33 36 36 39 41 42 43 43 44 46 47 48 47 48 50 53 57 59 61 60 60 59 57 57
58 56 54 51 48 44 41 39 38 40 42 41 40 39 37 36 34 32 32 33 38 40 41 41 42 41 41 43 45 47 48 49 49 49 50 53 56 58 58 57 54 53 53
59 57 54 51 48 43 39 35 33 34 37 39 40 40 39 38 38 36 36 36 37 40 43 43 43 41 41 42 45 46 48 49 49 49 50 51 52 52 51 51 51 50 49
60 58 54 52 50 46 40 34 30 29 29 33 38 41 41 41 41 41 39 39 38 38 41 44 46 44 43 44 45 47 49 50 50 50 50 49 49 49 49 50 49 48 47
62 59 55 52 50 48 44 38 32 28 26 26 31 37 42 44 44 44 44 42 41 40 39 41 45 47 47 47 47 48 50 52 52 52 51 50 49 49 50 49 48 47 46
62 59 56 53 50 48 45 42 37 31 27 24 24 29 37 42 46 47 47 46 44 42 40 39 41 45 48 49 49 49 51 53 54 54 53 52 50 50 50 49 48 47 47
62 59 56 53 51 49 46 43 39 35 30 26 23 23 28 37 44 48 49 49 47 45 44 42 41 42 44 46 47 48 49 51 52 53 53 52 51 51 50 50 49 49 49
61 59 58 57 55 52 49 45 40 36 32 28 25 22 22 27 36 45 48 49 49 48 47 47 45 44 44 44 46 47 48 48 48 49 50 49 49 50 50 50 48 47 47
59 59 60 62 60 55 50 46 41 35 32 29 26 22 20 21 26 34 43 47 49 50 50 50 49 48 46 46 47 48 49 48 48 48 48 48 48 48 49 49 47 46 44
58 58 60 63 63 60 53 46 42 37 32 29 27 24 21 19 20 24 31 40 48 52 52 52 52 51 51 50 49 49 50 50 50 50 49 49 49 49 49 48 47 46 43
58 58 60 63 65 63 56 48 40 36 32 28 26 24 23 20 18 19 22 28 37 47 51 53 53 54 54 54 54 53 52 52 52 52 51 50 50 50 49 48 46 44 43
58 58 60 62 65 66 61 52 43 35 30 27 24 23 22 21 20 19 19 20 25 33 43 50 54 56 57 57 57 57 56 55 54 53 52 51 50 50 50 48 46 44 43
57 58 59 61 65 69 67 59 48 38 31 25 22 20 19 19 19 19 19 19 20 23 30 39 48 54 58 59 59 59 59 59 57 56 55 53 52 51 50 49 47 45 43
57 58 61 62 63 67 69 66 56 44 35 27 22 18 16 15 15 16 16 17 18 19 21 27 35 44 53 58 61 61 61 61 61 60 59 58 56 55 53 51 49 47 45
58 59 61 62 62 64 67 69 65 54 42 32 25 19 15 12 11 11 11 13 14 16 17 20 24 31 40 50 57 62 64 64 64 64 64 63 62 60 58 56 54 51 49
61 59 60 61 62 62 65 67 68 64 56 44 34 26 20 15 11 9 8 9 11 12 13 15 17 21 27 35 45 54 61 65 67 67 67 67 67 66 64 62 60 58 55
61 59 58 59 59 60 61 62 64 65 64 60 51 41 32 24 18 13 10 10 10 10 9 9 11 13 17 23 29 38 47 57 64 68 69 70 70 69 68 67 65 63 61
60 59 57 56 57 59 60 61 61 62 62 62 60 56 51 45 37 31 25 20 17 14 11 9 8 10 12 15 18 24 30 39 49 59 66 70 71 72 72 71 69 67 65
58 58 57 55 56 58 59 60 60 59 59 58 57 57 55 54 51 48 45 41 37 32 27 20 14 8 5 7 10 14 19 24 31 40 51 61 67 71 72 72 71 70 69
55 57 57 56 56 57 58 59 59 58 57 56 55 54 53 52 52 50 49 47 44 42 40 37 33 28 21 14 7 2 6 12 17 24 32 41 51 60 66 70 71 71 71
Wind_Direction
320 319 318 316 313 310 305 297 289 283 281 281 282 281 282 284 285 284 285 272 257 248 240 233 230 231 233 235 236 238 239 241 242 241 240 239 238 238 237 237 236 236 236
315 313 311 309 306 303 299 295 291 286 282 281 281 281 282 284 286 286 286 280 261 245 232 222 219 223 228 231 233 234 235 236 237 238 238 237 237 236 236 236 236 236 236
311 308 306 303 301 298 296 293 290 287 284 281 279 280 281 283 285 286 285 277 252 229 213 215 217 223 225 226 227 229 231 232 233 234 234 235 235 235 235 235 236 236 237
312 308 304 300 297 293 291 289 287 285 283 281 278 278 279 280 282 284 281 263 232 211 208 214 219 226 230 230 232 234 235 235 235 234 234 234 234 234 234 235 236 236 237
318 315 310 305 299 293 288 284 282 281 280 278 276 275 275 276 275 276 264 242 226 219 218 218 218 223 227 230 233 235 236 237 237 237 235 234 235 235 236 235 235 235 236
330 327 322 316 308 299 290 283 278 275 274 273 271 270 269 268 266 263 250 230 226 227 229 229 225 222 223 224 226 228 230 233 236 236 235 234 233 234 235 236 236 236 238
339 336 331 326 319 310 299 286 277 271 267 266 265 264 261 260 257 253 245 231 228 230 233 235 236 235 235 232 230 230 231 233 236 238 238 237 236 235 235 236 238 240 241
344 342 339 335 330 323 314 300 285 273 264 260 257 257 255 252 249 245 242 236 233 233 235 237 238 237 236 237 236 235 236 238 239 240 241 240 238 237 238 239 240 240 240
346 344 342 341 339 335 328 317 302 288 273 261 254 250 249 247 244 241 238 236 237 237 237 237 238 236 234 236 237 237 237 239 240 241 242 240 235 232 233 234 236 237 237
347 345 344 343 342 340 337 331 320 306 290 273 259 250 246 244 242 239 236 234 236 239 239 238 236 235 233 233 234 235 235 235 236 237 238 237 232 227 226 229 233 235 236
348 347 345 344 343 343 341 337 330 319 306 289 270 257 250 245 242 240 238 235 234 236 239 239 236 234 233 233 232 232 231 231 231 231 232 232 229 227 227 229 233 235 237
348 347 346 345 343 343 342 340 335 327 317 304 286 267 254 248 245 242 239 237 234 234 235 236 235 233 233 233 233 231 228 227 227 226 228 229 229 228 228 231 234 237 240
350 350 350 348 345 343 341 339 335 331 324 315 301 282 264 251 246 244 242 240 238 235 233 233 233 231 230 229 229 226 224 223 223 224 227 229 230 230 231 233 237 241 244
354 354 354 352 349 344 340 337 333 329 325 320 313 299 280 261 249 244 242 242 241 238 235 232 231 230 228 227 226 224 223 223 223 225 227 229 230 231 232 234 238 242 244
355 356 356 356 353 348 343 338 333 329 323 319 315 310 298 280 262 250 243 241 241 240 237 234 231 230 230 228 227 226 226 227 226 227 228 229 229 230 233 235 237 240 243
357 358 358 358 356 352 348 342 336 331 325 319 314 310 306 297 281 265 252 242 239 239 238 236 233 231 230 229 229 228 228 228 228 228 228 228 229 231 233 235 237 240 241
360 360 359 359 359 356 351 346 340 333 326 319 312 306 303 300 293 282 268 255 245 240 238 237 235 233 231 230 229 229 228 228 228 228 228 228 229 231 234 236 238 240 241
1 1 1 1 2 1 358 353 347 340 330 320 312 304 298 295 292 289 283 271 257 246 241 238 236 235 234 232 231 230 230 229 229 229 229 229 229 230 233 235 236 238 240
2 3 3 4 6 6 5 2 357 351 343 333 321 310 300 293 289 287 286 281 272 259 249 243 239 236 235 234 233 232 231 231 230 230 230 230 230 231 232 233 234 235 237
4 5 6 7 8 10 11 10 8 3 357 350 340 328 315 302 293 289 286 284 281 272 261 251 244 240 237 235 234 234 233 233 232 232 232 232 232 232 232 233 234 234 235
7 9 9 9 10 12 14 17 17 16 12 7 2 355 345 330 316 304 295 290 289 286 276 264 253 245 241 238 236 235 234 234 233 233 233 233 234 234 234 235 235 235 234
11 12 11 11 13 14 17 20 23 25 26 24 22 19 14 5 353 338 319 305 300 296 289 276 264 253 246 241 238 237 235 235 234 234 234 234 234 235 235 236 236 235 235
14 15 14 14 15 17 19 22 25 28 32 35 36 35 33 29 25 18 5 348 336 327 313 293 274 260 252 246 241 239 237 236 235 235 235 235 235 235 236 236 237 237 236
16 17 17 16 18 20 22 24 26 29 32 36 39 42 44 45 45 44 40 33 24 12 356 333 304 279 262 253 247 242 240 238 237 236 236 236 236 236 236 236 237 237 237
18 20 20 20 21 23 25 26 28 30 32 34 37 40 42 45 47 49 50 50 49 47 44 39 31 13 326 275 257 249 245 242 239 238 237 236 236 236 236 237 237 237 237
20 22 23 23 24 26 27 28 29 31 33 34 36 38 39 41 43 44 45 46 46 47 48 48 49 50 51 50 44 331 258 249 246 243 240 238 237 236 236 236 236 237 237
Height
5503 5496 5489 5483 5478 5473 5469 5466 5463 5462 5460 5459 5458 5457 5456 5455 5453 5451 5448 5445 5446 5450 5458 5469 5481 5491 5499 5505 5512 5518 5526 5534 5544 5553 5563 5573 5581 5589 5596 5603 5611 5619 5626
5494 5487 5480 5474 5469 5465 5460 5457 5454 5451 5449 5447 5445 5444 5443 5442 5440 5437 5433 5429 5429 5433 5442 5454 5466 5476 5482 5488 5494 5500 5508 5515 5525 5533 5542 5552 5561 5569 5577 5585 5594 5602 5609
5482 5475 5468 5462 5457 5453 5449 5445 5442 5439 5436 5434 5432 5431 5430 5429 5427 5424 5420 5416 5416 5421 5431 5442 5451 5459 5465 5470 5477 5484 5493 5501 5509 5517 5524 5532 5541 5550 5559 5567 5576 5584 5591
5467 5460 5453 5447 5442 5437 5434 5430 5428 5425 5423 5421 5419 5417 5416 5416 5415 5413 5410 5407 5407 5413 5421 5429 5437 5444 5450 5457 5464 5472 5481 5490 5498 5504 5511 5518 5526 5534 5542 5550 5558 5567 5574
5452 5443 5435 5429 5423 5419 5415 5413 5410 5409 5408 5407 5405 5404 5404 5403 5403 5403 5402 5401 5402 5405 5411 5417 5424 5431 5437 5444 5451 5459 5468 5476 5484 5492 5498 5505 5512 5520 5528 5535 5543 5550 5557
5439 5429 5420 5411 5404 5399 5395 5393 5392 5391 5391 5391 5390 5390 5390 5390 5392 5393 5393 5394 5396 5398 5402 5406 5412 5418 5424 5431 5439 5447 5455 5463 5471 5478 5485 5492 5499 5506 5513 5520 5528 5536 5543
5431 5419 5408 5397 5388 5381 5376 5373 5372 5371 5372 5373 5374 5375 5376 5377 5380 5382 5383 5385 5388 5390 5393 5397 5402 5408 5413 5420 5429 5437 5444 5451 5459 5466 5472 5477 5484 5493 5501 5508 5514 5521 5529
5423 5411 5399 5388 5377 5368 5361 5356 5353 5353 5353 5355 5358 5360 5361 5363 5366 5369 5372 5375 5378 5381 5384 5388 5392 5398 5403 5410 5418 5425 5432 5439 5447 5453 5459 5464 5469 5477 5485 5493 5500 5507 5513
5417 5405 5392 5381 5370 5360 5351 5344 5340 5337 5337 5338 5340 5343 5346 5348 5351 5355 5359 5363 5366 5370 5374 5378 5383 5388 5394 5400 5407 5413 5420 5426 5433 5440 5445 5450 5456 5464 5471 5479 5486 5492 5499
5412 5399 5386 5374 5363 5353 5344 5336 5330 5326 5323 5323 5324 5327 5330 5333 5336 5340 5344 5350 5354 5358 5362 5366 5371 5377 5382 5387 5394 5400 5407 5414 5421 5427 5433 5438 5444 5451 5458 5465 5472 5479 5486
5406 5393 5380 5368 5357 5347 5337 5329 5323 5318 5314 5311 5310 5312 5315 5318 5321 5325 5329 5335 5341 5345 5348 5352 5357 5363 5369 5375 5381 5387 5394 5401 5408 5415 5421 5427 5433 5439 5446 5453 5460 5466 5472
5400 5387 5374 5362 5352 5342 5332 5323 5315 5309 5305 5301 5299 5298 5299 5303 5306 5310 5314 5319 5326 5332 5336 5340 5344 5350 5355 5362 5368 5374 5381 5388 5395 5402 5409 5415 5421 5428 5434 5441 5447 5453 5459
5396 5382 5370 5357 5346 5336 5327 5318 5310 5302 5296 5292 5288 5286 5285 5288 5291 5295 5300 5305 5311 5318 5323 5328 5333 5338 5343 5349 5355 5362 5368 5375 5383 5390 5396 5403 5409 5416 5422 5429 5435 5441 5446
5393 5379 5366 5354 5342 5330 5319 5310 5302 5295 5289 5283 5279 5276 5274 5274 5275 5279 5285 5291 5296 5302 5307 5313 5320 5325 5331 5337 5343 5350 5356 5363 5370 5377 5384 5390 5397 5404 5410 5417 5422 5428 5432
5391 5377 5364 5350 5337 5325 5312 5301 5293 5286 5279 5274 5270 5267 5264 5263 5262 5264 5269 5274 5279 5284 5291 5298 5305 5311 5317 5324 5330 5337 5344 5351 5358 5365 5372 5378 5385 5391 5398 5404 5410 5415 5420
5389 5376 5362 5348 5334 5320 5307 5295 5284 5276 5270 5265 5260 5258 5255 5254 5252 5252 5253 5257 5262 5267 5275 5282 5289 5296 5303 5309 5317 5324 5331 5339 5346 5353 5360 5366 5373 5379 5386 5392 5397 5403 5407
5387 5374 5361 5346 5332 5316 5301 5288 5278 5269 5260 5256 5252 5249 5247 5245 5244 5243 5243 5244 5247 5252 5259 5266 5273 5280 5287 5295 5303 5310 5318 5325 5332 5340 5347 5353 5360 5367 5374 5379 5385 5390 5396
5388 5375 5361 5347 5332 5315 5297 5282 5270 5260 5253 5247 5243 5240 5238 5237 5236 5235 5235 5235 5236 5238 5243 5249 5256 5264 5272 5280 5288 5296 5304 5311 5319 5326 5333 5340 5347 5354 5361 5368 5373 5378 5384
5389 5377 5363 5348 5332 5314 5296 5278 5264 5253 5245 5238 5234 5232 5230 5229 5228 5228 5227 5227 5227 5228 5230 5234 5240 5247 5255 5263 5272 5280 5288 5296 5304 5312 5320 5327 5334 5341 5348 5355 5362 5367 5373
5391 5377 5363 5348 5333 5318 5300 5281 5263 5249 5240 5233 5228 5225 5223 5222 5221 5221 5221 5220 5220 5220 5221 5223 5226 5231 5238 5246 5255 5263 5272 5280 5289 5297 5305 5313 5320 5328 5335 5343 5349 5356 5362
5393 5379 5365 5352 5338 5323 5307 5288 5269 5252 5240 5232 5226 5222 5219 5218 5217 5216 5216 5215 5215 5214 5214 5215 5216 5219 5223 5230 5237 5246 5255 5264 5272 5280 5289 5297 5305 5313 5321 5329 5336 5343 5350
5395 5382 5370 5357 5344 5329 5313 5297 5280 5263 5248 5236 5228 5223 5219 5217 5215 5214 5213 5213 5212 5210 5209 5209 5209 5210 5213 5216 5222 5229 5238 5246 5255 5264 5272 5281 5289 5298 5306 5314 5322 5330 5337
5401 5388 5376 5365 5352 5338 5323 5308 5293 5278 5264 5250 5239 5230 5224 5220 5217 5215 5213 5212 5210 5208 5206 5205 5205 5205 5205 5207 5211 5215 5222 5229 5237 5246 5255 5264 5272 5281 5289 5298 5306 5315 5322
5407 5395 5383 5373 5361 5347 5332 5319 5305 5293 5280 5268 5257 5247 5238 5231 5225 5221 5217 5214 5211 5208 5205 5203 5202 5201 5201 5202 5204 5206 5210 5215 5221 5228 5236 5245 5254 5263 5272 5281 5290 5298 5307
5415 5402 5391 5380 5368 5355 5342 5330 5318 5306 5295 5284 5274 5264 5255 5247 5240 5233 5228 5222 5217 5212 5208 5204 5201 5199 5199 5199 5200 5201 5203 5206 5209 5213 5219 5227 5235 5244 5254 5264 5273 5282 5290
5422 5411 5400 5389 5377 5365 5353 5341 5330 5319 5308 5298 5288 5279 5271 5263 5255 5248 5241 5235 5229 5223 5218 5213 5208 5205 5202 5200 5200 5200 5200 5201 5203 5205 5208 5212 5218 5226 5235 5244 5254 5263 5273